This is the latest recevied weather packets stored in our database for station/object WC4PEM-9. If no packets are shown the sender has not sent any weather packets the latest 10 day(s).
| Time | Temp. | Humidity | Pressure | Rain* | Wind** | Luminosity | Snow |
|---|---|---|---|---|---|---|---|
| 1777788197 | 18.33° C | 94% | 1014.3 hPa | 1.02 mm | - | - | - |
| 1777787916 | 18.33° C | 94% | 1014.3 hPa | 1.02 mm | - | - | - |
| 1777787867 | 18.33° C | 94% | 1014.4 hPa | 1.52 mm | - | - | - |
| 1777787616 | 18.33° C | 94% | 1014.4 hPa | 1.52 mm | - | - | - |
| 1777787503 | 18.33° C | 94% | 1014.3 hPa | 1.78 mm | - | - | - |
| 1777787316 | 18.33° C | 94% | 1014.3 hPa | 1.78 mm | - | - | - |
| 1777787055 | 18.89° C | 94% | 1014.6 hPa | 1.78 mm | - | - | - |
| 1777787016 | 18.33° C | 94% | 1014.4 hPa | 2.03 mm | - | - | - |
| 1777786716 | 18.89° C | 94% | 1014.6 hPa | 1.78 mm | - | - | - |
| 1777786600 | 18.89° C | 94% | 1014.5 hPa | 1.78 mm | - | - | - |
| 1777786416 | 18.89° C | 94% | 1014.5 hPa | 1.78 mm | - | - | - |
| 1777786362 | 19.44° C | 94% | 1014 hPa | 2.03 mm | - | - | - |
| 1777786116 | 19.44° C | 94% | 1014 hPa | 2.03 mm | - | - | - |
| 1777785816 | 19.44° C | 94% | 1014.3 hPa | 2.54 mm | - | - | - |
| 1777785769 | 19.44° C | 94% | 1014.6 hPa | 2.54 mm | - | - | - |
| 1777785578 | 19.44° C | 94% | 1014.4 hPa | 2.29 mm | - | - | - |
| 1777785516 | 19.44° C | 94% | 1014.6 hPa | 2.54 mm | - | - | - |
| 1777785228 | 20° C | 94% | 1014.5 hPa | 2.29 mm | - | - | - |
| 1777785216 | 19.44° C | 94% | 1014.4 hPa | 2.29 mm | - | - | - |
| 1777784916 | 20° C | 94% | 1014.5 hPa | 2.29 mm | - | - | - |
| 1777784848 | 20° C | 94% | 1014.5 hPa | 2.03 mm | - | - | - |
| 1777784616 | 20° C | 94% | 1014.5 hPa | 2.03 mm | - | - | - |
| 1777784316 | 20° C | 94% | 1014.5 hPa | 1.78 mm | - | - | - |
| 1777784016 | 20.56° C | 94% | 1014.6 hPa | 1.27 mm | - | - | - |
| 1777783716 | 21.11° C | 94% | 1014.6 hPa | 1.02 mm | - | - | - |
* Rain latest hour (hover to see other rain measurements)
** Current wind speed in m/s (hover to see current wind gust speed)